Location: Chalets de Mélezuin
(44.8667°N, 6.6333°E)
Time: 11:58:42
(UTC+00:00)

Daily predictions for brighter satellites

Satellite Brightness Start Highest point End
(mag) Time Altitude Azimuth Time Altitude Azimuth Time Altitude Azimuth
Centaur D AC-29 3.9 19:30:10 10° SSE 19:33:01 13° SE 19:37:34 10° ESE
Cosmos 494 Rocket 4.3 19:35:05 10° S 19:39:55 46° ESE 19:44:48 10° NNE
CZ-4C R/B 3.9 19:37:18 10° NNE 19:40:55 36° E 19:44:37 10° SSE
SL-8 R/B 3.7 19:38:10 10° WSW 19:42:55 82° SSE 19:47:41 10° ENE
Cosmos 1743 3.1 19:40:05 10° N 19:43:33 42° ENE 19:46:59 10° SSE
Cosmos 1812 Rocket 4.5 19:39:20 10° SSW 19:43:38 53° WNW 19:47:56 10° N
Aureole 3 Rocket 3.5 19:39:26 10° N 19:43:40 62° E 19:49:35 10° SSE
CSL-04 Rocket 3.9 19:39:16 10° S 19:44:32 71° WSW 19:49:50 10° NNW
USA 186 3.6 19:44:22 10° SSW 19:47:13 31° W 19:50:10 10° NNW
Okean-O 2.7 19:43:17 10° SSE 19:47:38 63° ENE 19:52:00 10° N
SL-16 R/B 2.8 19:43:17 10° SW 19:48:53 63° WNW 19:54:32 10° NNE
Meteor 1-26 Rocket 4.5 19:43:37 10° S 19:49:40 87° W 19:55:42 10° N
Cosmos 1634 Rocket 4.3 19:43:52 10° N 19:50:01 53° ENE 19:56:04 10° SSE
SPOT 5 3.1 19:48:21 10° SE 19:52:41 46° ENE 19:56:54 10° N
Cosmos 1048 Rocket 4.2 19:51:43 10° S 19:56:36 46° ESE 20:01:30 10° NNE
Cosmos 2369 Rocket 2.2 19:51:06 10° NNW 19:56:44 86° ENE 20:02:20 10° SSE
Cosmos 1656 Rocket 3.8 19:51:35 10° NNW 19:57:03 74° WSW 20:02:34 10° SSE
Cosmos 2263 4.4 19:52:04 10° NNW 19:57:46 67° ENE 20:03:25 10° SE
Cosmos 44 4.3 19:54:54 10° NW 19:59:19 38° WSW 20:03:29 10° S
Meteor 1-14 Rocket 4.5 19:56:31 10° N 20:02:23 64° ENE 20:08:17 10° SSE
Cosmos 2034 Rocket 4.5 19:58:36 10° NNW 20:04:46 65° W 20:10:58 10° S
Meteor 2-6 Rocket 4.2 20:01:17 10° S 20:06:49 68° E 20:12:14 10° NNE
USA 229 DEB 4.1 20:01:05 10° NW 20:08:36 86° WSW 20:16:16 12° SSE
USA 229 4.1 20:01:11 10° NW 20:08:43 87° SW 20:16:23 12° SSE
Cosmos 1331 Rocket 4.5 20:04:47 10° N 20:09:51 47° ENE 20:14:10 13° SE
MOS 1 4.3 20:05:09 10° SSE 20:10:49 90° WSW 20:16:31 10° NNW
Cosmos 1536 3.7 20:11:40 10° N 20:15:14 33° ENE 20:17:51 16° SE
SeaSat 1 4.3 20:12:07 10° SSW 20:16:07 25° WSW 20:20:09 10° NW
Cosmos 1110 Rocket 4.2 20:12:32 10° NNW 20:17:48 59° ENE 20:22:09 15° SE
Cosmos 1726 2.1 20:16:30 10° N 20:19:31 44° ENE 20:21:30 18° SE
USA 306 3.0 20:17:50 10° NW 20:21:35 58° NNE 20:24:42 15° ESE
USA 59 Rocket 1.8 20:19:17 10° N 20:22:19 21° NE 20:26:03 10° E
Lacrosse 4 Rocket 3.8 20:21:20 10° NNE 20:22:54 12° NE 20:24:29 10° ENE
Tsikada Rocket 4.3 20:16:48 10° SSW 20:22:57 69° W 20:29:14 10° N
Cosmos 1943 3.2 20:20:07 10° SSW 20:25:47 84° ESE 20:31:29 10° NNE
BREEZE-M DEB (TANK) 4.4 20:09:03 10° SSW 20:25:49 44° SSE 20:30:12 10° ENE
IRS-1C Rocket 4.1 20:21:18 11° SSE 20:26:23 89° E 20:31:41 10° NNW
Cosmos 1842 Rocket 3.5 20:22:52 10° S 20:27:18 80° E 20:31:43 10° N
USA 276 3.5 20:27:25 10° WSW 20:28:49 15° SW 20:29:24 14° SSW
Spot 2 Rocket 3.8 20:25:05 16° SE 20:28:58 52° ENE 20:33:52 10° N
Okean 3 Rocket 3.5 20:25:02 10° N 20:29:26 86° E 20:33:10 14° S
Resurs 01 Rocket 3.9 20:26:16 10° SW 20:29:41 22° W 20:33:08 10° NW
IRS-1A Rocket 4.3 20:24:47 12° SSE 20:30:06 88° ENE 20:35:40 10° NNW
ARGOS Delta rocket 3.9 20:27:17 14° SSE 20:31:36 74° ENE 20:36:22 10° N
ISS -3.7 20:28:41 10° WNW 20:32:02 67° SSW 20:33:56 23° SE
Landsat 5 4.5 20:33:59 10° NE 20:37:06 24° E 20:38:13 21° ESE
SPOT 3 Rocket 3.7 20:36:08 18° SE 20:39:48 58° ENE 20:44:51 10° N
Okean O Rocket 3.9 20:36:38 10° SW 20:39:55 20° W 20:43:15 10° NW
Cosmos 1340 3.7 20:37:56 10° NNE 20:40:50 25° ENE 20:42:01 21° ESE
Sich 1 3.6 20:38:26 10° N 20:42:36 41° ENE 20:44:55 23° SE
Meteor 1-27 Rocket 3.9 20:40:55 16° SSE 20:45:08 51° E 20:50:30 10° NNE
Meteor 2-9 Rocket 4.5 20:40:41 10° N 20:46:28 59° ENE 20:50:24 21° SSE
USA 281 3.7 20:43:30 18° SE 20:48:20 51° ENE 20:54:41 10° NNW
Ariane Rocket 3.0 20:48:21 20° SSE 20:51:52 81° ENE 20:56:59 10° NNW
MetOp-A 4.4 20:53:25 23° SE 20:55:51 43° ENE 21:00:30 10° N
GEOS 3 Rocket 3.8 20:54:18 10° NE 20:59:14 44° ESE 21:03:30 13° SSW
Terra 2.0 20:59:36 20° S 21:02:51 68° WSW 21:07:33 10° NNW
Cosmos 1340 Rocket 2.8 21:03:13 29° SSE 21:05:06 63° E 21:09:03 10° NNE
MOS 1 Rocket 3.5 21:02:03 23° SSE 21:05:18 88° ENE 21:10:40 10° NNW
Cosmos 1452 Rocket 4.1 21:02:52 10° NNW 21:07:57 51° WSW 21:11:26 19° S
Cosmos 1743 Rocket 3.5 21:04:28 10° N 21:08:53 73° E 21:10:55 31° SSE
Lacrosse 5 rocket 4.3 21:10:32 10° NW 21:13:09 16° N 21:15:43 10° NE
NOSS 2-1 (C) 4.1 21:09:51 10° NNW 21:13:39 52° NE 21:16:11 26° ESE
ARIANE 5 R/B 4.2 21:12:44 18° E 21:14:20 22° ENE 21:17:40 10° NNE
ERS-1 Rocket 3.8 21:12:27 16° SSW 21:16:11 44° W 21:21:01 10° NNW
Cosmos 1408 Rocket 4.3 21:14:16 10° NNW 21:18:35 50° W 21:21:17 21° SSW
Meteor 2-10 4.2 21:15:41 10° NNW 21:21:12 75° W 21:24:12 26° S
USA 245 4.5 21:22:29 15° WSW 21:22:54 15° W 21:24:23 10° NW
Cosmos 1626 3.3 21:24:36 23° ENE 21:24:36 23° ENE 21:26:46 10° NE
SL-8 R/B 4.3 21:20:53 10° W 21:25:34 56° N 21:30:16 10° ENE
Spot 1 4.0 21:21:41 10° NNE 21:25:48 83° WNW 21:28:04 27° SSW
Nadezhda 4 Rocket 4.0 21:21:16 19° S 21:25:49 89° W 21:32:08 10° N
Cosmos 614 Rocket 3.9 21:25:40 27° S 21:28:30 69° ESE 21:33:42 10° NNE
Cosmos 1833 Rocket 3.7 21:35:26 26° ESE 21:35:58 26° ESE 21:40:32 10° NE
Cosmos 1151 Rocket 3.1 21:37:10 32° SSW 21:39:08 73° W 21:43:29 10° N
Cosmos 2369 Rocket 4.5 21:37:08 10° WNW 21:39:55 14° W 21:42:41 10° SW
Cosmos 1975 2.7 21:38:33 10° N 21:42:29 70° E 21:43:09 56° SE
Cosmos 1328 Rocket 3.7 21:45:12 47° SE 21:45:55 54° E 21:50:08 10° NNE
FALCON 9 R/B 4.4 21:41:54 10° WSW 21:48:32 37° S 21:58:41 22° SE
Cosmos 1302 Rocket 4.4 21:45:39 10° NNW 21:50:41 52° WSW 21:52:42 33° SSW
Cosmos 1992 Rocket 3.9 21:46:11 10° NNW 21:51:27 81° ENE 21:53:10 43° SSE
USA 306 4.1 21:51:50 10° WNW 21:54:47 25° SW 21:54:47 25° SW
Cosmos 1656 3.6 21:50:41 10° NNW 21:56:10 74° ENE 21:58:06 41° SE
Cosmos 1766 3.7 21:55:38 10° N 21:59:14 43° ENE 21:59:18 43° E
Cosmos 1805 3.6 21:57:26 10° NNW 22:01:03 49° W 22:01:33 45° WSW
Lacrosse 4 Rocket 1.3 21:57:46 10° NNW 22:01:53 78° ENE 22:02:26 64° SE
H-2A R/B 3.2 22:02:15 38° E 22:02:56 41° ENE 22:06:57 10° N
Cosmos 1470 Rocket 3.9 21:59:10 10° N 22:03:32 52° ENE 22:04:11 47° ESE
Cosmos 2026 Rocket 4.0 22:02:10 32° SSW 22:05:20 84° W 22:11:37 10° N
IRIDIUM 104 4.4 22:02:19 10° N 22:07:31 70° W 22:09:23 40° SSW
Cosmos 1470 4.1 22:06:13 10° NNE 22:09:19 26° ENE 22:09:19 26° ENE
Cosmos 1633 Rocket 3.0 22:06:18 10° N 22:10:44 82° W 22:11:28 61° S
NOSS 3-3 (A) 3.6 22:08:04 27° SSW 22:11:10 86° SE 22:17:27 10° NE
USA 59 Rocket 0.5 22:08:00 10° NW 22:12:06 56° SW 22:13:07 47° SSW
Cosmos 1666 Rocket 3.7 22:08:31 10° NNW 22:12:47 63° W 22:13:32 53° SW
Orbus 7S? 3.5 22:13:47 58° ESE 22:13:47 58° ESE 22:16:29 10° NE
NOSS 2-1 (E) 4.1 22:10:06 10° NW 22:14:12 54° SW 22:15:08 47° SSW
USA 267 4.3 22:11:13 10° ENE 22:15:41 25° ESE 22:15:41 25° ESE
Cosmos 1140 Rocket 3.9 22:19:19 42° ESE 22:19:44 42° ESE 22:24:39 10° NNE
CZ-2C R/B 3.7 22:18:08 10° N 22:22:37 73° WNW 22:23:38 51° SW
Cosmos 44 Rocket 4.0 22:18:53 10° NNW 22:23:39 46° NE 22:25:16 33° E
Cosmos 1818 3.8 22:21:17 21° SW 22:24:57 69° NW 22:30:27 10° NNE
NOSS 2-1 (D) 4.5 22:22:52 10° NW 22:26:50 40° WSW 22:27:17 39° SW
ALOS 2 3.4 22:26:21 37° E 22:27:00 40° ENE 22:31:07 10° N
Cosmos 1933 Rocket 3.9 22:24:25 10° N 22:28:40 49° ENE 22:29:00 48° E
BREEZE-M DEB (TANK) 3.7 22:31:06 45° E 22:31:06 45° E 22:35:37 10° ENE
Meteor 2-12 Rocket 4.4 22:29:06 45° S 22:31:06 80° E 22:37:17 10° N
USA 281 4.2 22:30:22 26° SW 22:33:00 34° WSW 22:38:56 10° NW
Cosmos 1697 Rocket 2.9 22:28:08 10° NNW 22:33:44 62° ENE 22:35:28 42° ESE
Cosmos 1674 3.0 22:37:26 56° NNE 22:37:26 56° NNE 22:40:17 10° N
Cosmos 1553 Rocket 3.9 22:31:59 10° N 22:38:05 86° W 22:39:56 48° S
Spot 2 4.5 22:37:38 53° ESE 22:38:25 62° ENE 22:43:16 10° N
Cosmos 1607 4.0 22:37:13 45° S 22:39:07 66° ESE 22:45:34 10° NE
NOSS 3-3 (C) 4.1 22:38:08 20° SW 22:41:57 65° NW 22:48:19 10° NE
Cosmos 1980 Rocket 3.3 22:36:41 10° NNW 22:41:59 37° NE 22:44:38 24° ESE
Cosmos 1066 Rocket 4.5 22:41:55 39° SW 22:44:04 66° WNW 22:49:57 10° N
Cosmos 2285 Rocket 4.1 22:44:28 48° SSE 22:46:01 61° ESE 22:52:16 10° NNE
Cosmos 407 Rocket 3.7 22:49:43 51° SE 22:50:10 53° ESE 22:55:17 10° NNE
ARIANE 5 R/B 3.4 22:50:12 37° WSW 22:50:30 38° W 22:54:32 10° NNW
Lacrosse 5 rocket 3.7 22:49:29 10° NNW 22:52:47 22° NNE 22:55:59 10° ENE
Cosmos 1908 3.7 22:51:24 10° N 22:54:20 51° NNE 22:54:20 51° NNE
Cosmos 1626 4.2 22:57:25 16° WNW 22:57:38 16° WNW 22:59:46 10° NNW
Cosmos 2251 Rocket 3.5 23:01:47 58° SE 23:02:18 61° ESE 23:07:30 10° NNE
COSMOS 2406 4.2 23:02:31 32° ESE 23:02:52 32° ESE 23:07:54 10° NE
CZ-3 Stage 3 4.2 22:45:02 10° WSW 23:03:03 33° SSW 23:03:03 33° SSW
Meteor 1-13 Rocket 4.3 23:04:59 54° S 23:06:22 79° E 23:12:17 10° NNE
SL-8 R/B 3.8 23:03:36 10° WNW 23:08:21 72° NNE 23:10:28 33° E
Cosmos 1707 3.2 23:09:21 53° NW 23:09:21 53° NW 23:12:29 10° N
Cosmos 2266 Rocket 3.9 23:12:28 51° SSW 23:14:11 87° W 23:20:28 10° N
Spot 4 4.2 23:13:59 48° WSW 23:14:19 49° W 23:18:58 10° NNW
Cosmos 1441 Rocket 3.7 23:11:37 10° N 23:14:30 53° NNE 23:14:30 53° NNE
Cosmos 1842 4.3 23:15:46 36° WNW 23:15:46 36° WNW 23:19:02 10° N
SL-16 R/B 4.4 23:11:53 10° N 23:16:00 20° NE 23:20:06 10° E
Cosmos 1655 Rocket 4.0 23:15:56 50° SSE 23:17:37 72° E 23:23:59 10° NNE
Cosmos 1833 Rocket 3.3 23:17:04 30° WSW 23:19:32 50° WNW 23:25:01 10° NNE
Cosmos 883 Rocket 4.4 23:16:33 10° N 23:22:50 84° E 23:24:33 51° SSE
Cosmos 2082 Rocket 2.3 23:23:05 52° SE 23:23:50 56° ESE 23:29:26 10° NNE
ATLAS CENTAUR R/B 4.4 23:12:46 10° NW 23:26:38 71° SW 23:31:47 35° SSE
CZ-2C R/B 3.8 23:27:24 40° SE 23:28:53 55° ENE 23:44:33 10° N
Cosmos 1300 3.5 23:27:58 10° N 23:30:52 42° NE 23:30:52 42° NE
Cosmos 2228 Rocket 3.2 23:31:44 60° E 23:31:46 60° E 23:36:13 10° NNE
Meteor 1-22 Rocket 4.0 23:27:38 10° NNW 23:33:00 84° W 23:33:54 63° S
Meteor 1-15 Rocket 4.1 23:31:36 10° NNW 23:37:15 77° W 23:38:16 59° SSW
Cosmos 1356 Rocket 4.2 23:38:18 40° E 23:38:18 40° E 23:41:53 10° NNE
H-2A R/B 4.4 23:38:15 19° W 23:38:15 19° W 23:41:05 10° NW
H-2A R/B 1.9 23:33:51 10° NNE 23:38:18 88° E 23:38:23 86° SSE
Cosmos 1733 Rocket 3.2 23:35:30 10° N 23:39:48 60° E 23:39:58 59° E
Cosmos 1869 Rocket 4.1 23:38:26 10° NNW 23:42:30 45° W 23:42:30 45° W
Meteor 1-21 4.4 23:41:47 49° SE 23:42:56 59° E 23:48:35 10° NNE
Cosmos 1400 Rocket 3.0 23:54:09 67° NW 23:54:09 67° NW 23:57:52 10° N
